Location: Burera
(21.3780°N, 81.9534°E)
Time: 10:30:14
(UTC+00:00)

Cosmos 1633 Rocket - Pass Details

Date: 13 August 2020
Orbit: 606 x 624 km, 82.5° (Epoch: 22 September)

Event Time Altitude Azimuth Distance (km) Brightness Sun altitude
Exits shadow 14:05:59 24° 110° (ESE) 1,305 4.1 -14.5°
Maximum altitude 14:06:51 25° 91° (E) 1,251 4.1 -14.7°
Drops below altitude 10° 14:10:29 10° 35° (NE) 1,992 5.5 -15.5°
Sets 14:13:00 0° 23° (NNE) 2,899 6.5 -16.0°
